This is the latest recevied weather packets stored in our database for station/object N7NIP. If no packets are shown the sender has not sent any weather packets the latest 10 day(s).
| Time | Temp. | Humidity | Pressure | Rain* | Wind** | Luminosity | Snow |
|---|---|---|---|---|---|---|---|
| 1777772046 | 22.78° C | 43% | 1027.2 hPa | 0 mm | - | 164 W/m² | - |
| 1777771743 | 22.78° C | 44% | 1027.3 hPa | 0 mm | - | 179 W/m² | - |
| 1777771441 | 23.33° C | 47% | 1027.4 hPa | 0 mm | - | 192 W/m² | - |
| 1777771137 | 23.33° C | 47% | 1027.5 hPa | 0 mm | - | 209 W/m² | - |
| 1777770835 | 22.78° C | 48% | 1027.5 hPa | 0 mm | - | 227 W/m² | - |
| 1777770531 | 23.33° C | 47% | 1027.4 hPa | 0 mm | - | 244 W/m² | - |
| 1777770228 | 23.33° C | 47% | 1027.3 hPa | 0 mm | - | 262 W/m² | - |
| 1777769925 | 23.89° C | 47% | 1027.3 hPa | 0 mm | - | 284 W/m² | - |
| 1777769623 | 23.89° C | 47% | 1027.4 hPa | 0 mm | - | 298 W/m² | - |
| 1777769318 | 23.33° C | 49% | 1027.2 hPa | 0 mm | - | 315 W/m² | - |
| 1777769016 | 23.89° C | 50% | 1027.4 hPa | 0 mm | - | 331 W/m² | - |
| 1777768713 | 23.89° C | 50% | 1027.5 hPa | 0 mm | - | 347 W/m² | - |
| 1777768410 | 23.89° C | 50% | 1027.4 hPa | 0 mm | - | 364 W/m² | - |
| 1777768107 | 23.89° C | 50% | 1027.5 hPa | 0 mm | - | 382 W/m² | - |
| 1777767804 | 23.33° C | 52% | 1027.4 hPa | 0 mm | - | 399 W/m² | - |
| 1777767501 | 24.44° C | 50% | 1027.4 hPa | 0 mm | - | 417 W/m² | - |
| 1777767197 | 23.89° C | 51% | 1027.6 hPa | 0 mm | - | 434 W/m² | - |
| 1777766895 | 23.89° C | 52% | 1027.6 hPa | 0 mm | - | 451 W/m² | - |
| 1777766592 | 24.44° C | 51% | 1027.4 hPa | 0 mm | - | 469 W/m² | - |
| 1777766289 | 23.89° C | 53% | 1027.7 hPa | 0 mm | - | 485 W/m² | - |
| 1777765986 | 23.89° C | 52% | 1027.6 hPa | 0 mm | - | 500 W/m² | - |
| 1777765683 | 23.89° C | 52% | 1027.9 hPa | 0 mm | - | 517 W/m² | - |
| 1777765380 | 23.89° C | 52% | 1027.8 hPa | 0 mm | - | 533 W/m² | - |
| 1777765076 | 24.44° C | 53% | 1028 hPa | 0 mm | - | 550 W/m² | - |
| 1777764773 | 23.89° C | 53% | 1028 hPa | 0 mm | - | 566 W/m² | - |
* Rain latest hour (hover to see other rain measurements)
** Current wind speed in m/s (hover to see current wind gust speed)